This is the latest recevied weather packets stored in our database for station/object BM2MWA-13. If no packets are shown the sender has not sent any weather packets the latest 10 day(s).
| Time | Temp. | Humidity | Pressure | Rain* | Wind** | Luminosity | Snow |
|---|---|---|---|---|---|---|---|
| 1777699024 | 28.89° C | 64% | 1007.7 hPa | 0 mm | - | - | - |
| 1777698423 | 28.33° C | 62% | 1007.7 hPa | 0 mm | - | - | - |
| 1777697824 | 29.44° C | 59% | 1007.8 hPa | 0 mm | - | - | - |
| 1777697223 | 30° C | 57% | 1007.8 hPa | 0 mm | - | - | - |
| 1777696624 | 30° C | 57% | 1007.9 hPa | 0 mm | - | - | - |
| 1777696024 | 30.56° C | 55% | 1008 hPa | 0 mm | - | - | - |
| 1777695424 | 30° C | 54% | 1008.2 hPa | 0 mm | - | - | - |
| 1777694824 | 30° C | 54% | 1008.4 hPa | 0 mm | - | - | - |
| 1777694223 | 29.44° C | 55% | 1008.5 hPa | 0 mm | - | - | - |
| 1777693624 | 30° C | 56% | 1008.6 hPa | 0 mm | - | - | - |
| 1777693024 | 30° C | 57% | 1008.6 hPa | 0 mm | - | - | - |
| 1777692423 | 29.44° C | 54% | 1008.7 hPa | 0 mm | - | - | - |
| 1777691824 | 28.89° C | 56% | 1008.8 hPa | 0 mm | - | - | - |
| 1777691224 | 28.89° C | 56% | 1008.9 hPa | 0 mm | - | - | - |
| 1777690641 | 28.33° C | 60% | 1009 hPa | 0 mm | - | - | - |
| 1777690023 | 28.33° C | 57% | 1009.1 hPa | 0 mm | - | - | - |
| 1777689423 | 28.33° C | 59% | 1009.3 hPa | 0 mm | - | - | - |
| 1777688824 | 27.78° C | 58% | 1009.4 hPa | 0 mm | - | - | - |
| 1777688226 | 27.22° C | 59% | 1009.6 hPa | 0 mm | - | - | - |
| 1777687624 | 27.22° C | 61% | 1009.7 hPa | 0 mm | - | - | - |
| 1777687024 | 26.67° C | 63% | 1009.8 hPa | 0 mm | - | - | - |
| 1777686424 | 26.11° C | 63% | 1009.8 hPa | 0 mm | - | - | - |
| 1777685823 | 25.56° C | 63% | 1009.9 hPa | 0 mm | - | - | - |
| 1777685224 | 25.56° C | 65% | 1009.9 hPa | 0 mm | - | - | - |
| 1777684624 | 25.56° C | 63% | 1009.9 hPa | 0 mm | - | - | - |
* Rain latest hour (hover to see other rain measurements)
** Current wind speed in m/s (hover to see current wind gust speed)